NUSAT-1 (FRESCO)

Last updated on Sat Oct 21 2023 00:02:24 GMT+0000 (Coordinated Universal Time)

1 41557U 16033B 23293.47155342 .03874446 24515-5 10157-2 0 9999 2 41557 97.3637 49.2500 0009372 285.9252 74.1008 16.28464265413342
UTC large
Height (km)
Speed (km/s)
/
Latitude / Longitude
Inclination (degrees)
Orbital Period (minutes)
Azimuth
Elevation
Range (km)
Doppler Factor

Next 0 passes for location: London (51.5072 / 0.1276)

Sorry there are no passes over London.